Date,TemperatureHighF,TemperatureAvgF,TemperatureLowF,DewpointHighF,DewpointAvgF,DewpointLowF,HumidityHigh,HumidityAvg,HumidityLow,PressureMaxIn,PressureMinIn,WindSpeedMaxMPH,WindSpeedAvgMPH,GustSpeedMaxMPH,PrecipitationSumIn
2013-1-22,74.3,62.6,55.3,45.0,30.3,21.0,51,30,15,30.09,30.03,12,3,15,0.00
2013-1-23,69.4,57.7,52.2,48.0,37.6,22.0,81,50,19,30.10,29.97,19,3,19,0.00
2013-1-24,63.5,58.2,52.9,60.0,54.5,46.0,92,88,67,30.15,30.03,10,4,14,0.20
2013-1-25,67.8,59.0,55.3,59.0,55.7,53.0,94,89,72,30.15,30.00,9,3,12,0.02
2013-1-26,62.9,56.1,48.2,57.0,51.1,44.0,91,83,65,30.05,29.95,17,6,22,0.00
2013-1-27,57.1,50.4,43.9,47.0,42.1,36.0,85,73,59,30.16,30.05,19,6,22,0.00
2013-1-28,56.5,49.3,41.9,47.0,40.0,34.0,76,70,60,30.28,30.15,16,6,21,0.00
2013-1-29,58.8,50.9,43.9,48.0,42.0,38.0,82,72,58,30.32,30.21,14,5,19,0.00
2013-1-30,65.2,53.8,47.2,49.0,43.1,38.0,86,68,44,30.35,30.23,12,4,15,0.00
2013-1-31,62.7,53.1,46.3,53.0,46.8,42.0,88,80,69,30.27,30.14,10,3,12,0.00
2013-2-1,59.0,51.7,46.1,53.0,47.5,42.0,92,86,72,30.22,30.14,17,4,18,0.00
2013-2-2,59.8,53.4,49.0,53.0,49.6,46.0,92,87,73,30.26,30.16,10,2,12,0.00
2013-2-3,60.0,51.7,46.9,54.0,48.5,44.0,95,89,77,30.22,30.10,18,4,21,0.00
2013-2-4,61.4,50.6,44.2,55.0,47.7,43.0,96,90,75,30.13,30.02,9,3,13,0.01
2013-2-5,53.1,50.1,46.3,50.0,47.1,43.0,94,90,82,30.13,30.05,11,2,15,0.00
2013-2-6,61.8,52.4,45.2,50.0,44.7,41.0,88,76,57,30.16,30.06,19,5,22,0.00
2013-2-7,57.0,49.1,42.8,50.0,44.5,41.0,94,84,73,30.19,30.05,14,4,18,0.01
2013-2-8,52.6,46.0,41.6,46.0,41.8,39.0,92,85,75,30.05,29.93,14,4,26,0.37
2013-2-9,55.6,47.3,40.6,47.0,42.2,38.0,93,83,71,30.12,30.01,19,5,20,0.01
2013-2-10,54.5,46.8,40.4,49.0,42.4,38.0,92,85,74,30.13,30.03,14,5,16,0.00
2013-2-11,55.5,48.3,42.1,49.0,42.9,39.0,92,82,65,30.27,30.09,11,4,13,0.00
2013-2-12,57.0,49.3,42.0,51.0,43.2,38.0,89,80,57,30.37,30.27,15,4,16,0.00
2013-2-13,64.3,51.9,42.1,52.0,44.9,40.0,94,78,53,30.31,30.16,15,4,18,0.00
2013-2-14,51.5,47.5,44.6,47.0,42.8,41.0,89,84,80,30.20,30.16,4,1,8,0.00
2013-2-16,70.4,61.3,51.2,44.0,32.8,21.0,57,36,18,30.07,30.03,12,5,17,0.00
2013-2-17,59.3,50.9,44.5,51.0,44.3,35.0,90,78,55,30.05,29.95,20,5,23,0.00
2013-2-18,53.1,50.2,46.6,48.0,45.6,41.0,90,84,73,30.10,29.99,10,3,13,0.00
2013-2-19,52.6,49.4,45.6,47.0,42.9,40.0,86,78,69,30.01,29.88,13,5,15,0.00
2013-2-20,55.5,51.3,46.4,47.0,43.5,39.0,82,75,65,30.08,29.96,21,9,23,0.00
2013-2-21,61.0,49.7,41.5,46.0,40.7,37.0,87,72,52,30.17,30.05,16,5,20,0.00
2013-2-22,60.5,52.0,44.9,50.0,40.5,34.0,76,65,40,30.24,30.16,21,5,23,0.00
2013-2-23,58.6,52.1,45.5,49.0,42.3,31.0,79,70,48,30.23,30.06,19,6,26,0.00
2013-2-24,65.6,52.2,43.7,47.0,34.9,26.0,74,53,33,30.26,30.12,12,4,18,0.00
2013-2-25,60.8,50.4,43.7,49.0,40.7,31.0,84,70,48,30.27,30.12,18,4,23,0.00
2013-2-26,72.8,58.1,46.5,46.0,33.0,21.0,84,41,19,30.18,30.05,17,4,19,0.00
2013-2-27,68.0,56.1,48.4,47.0,34.7,20.0,77,47,19,30.34,30.17,17,5,21,0.00
2013-2-28,74.5,58.0,44.9,52.0,43.7,37.0,88,63,32,30.40,30.30,14,4,16,0.00
2013-3-1,76.3,64.6,56.0,54.0,43.1,35.0,68,46,31,30.36,30.19,10,3,12,0.00
2013-3-2,66.2,57.1,50.3,54.0,46.6,40.0,94,70,41,30.21,30.10,16,4,17,0.00
2013-3-3,61.4,54.9,47.8,53.0,49.4,43.0,91,82,51,30.13,30.03,21,6,22,0.00
2013-3-4,59.1,51.4,44.9,51.0,47.1,42.0,92,85,73,30.14,30.05,20,5,25,0.00
2013-3-5,55.8,51.4,49.6,48.0,45.6,44.0,91,81,70,30.13,30.05,12,4,13,0.00
2013-3-6,56.4,51.1,48.0,54.0,48.2,44.0,93,90,78,30.13,30.02,13,3,15,0.24
2013-3-7,55.6,50.6,46.0,52.0,47.3,43.0,92,89,82,30.03,29.85,10,3,14,0.25
2013-3-8,55.1,48.6,44.8,49.0,44.8,42.0,94,87,74,30.12,29.82,21,6,24,0.12
2013-3-9,60.4,52.9,47.8,50.0,44.6,41.0,79,73,64,30.30,30.11,21,6,22,0.00
2013-3-10,61.5,53.2,47.8,52.0,45.9,40.0,86,76,63,30.34,30.21,21,6,23,0.00
2013-3-11,64.9,51.8,44.4,55.0,47.2,42.0,94,85,60,30.24,30.08,11,2,14,0.01
2013-3-12,60.5,52.1,45.4,53.0,48.5,43.0,94,88,77,30.13,30.05,12,3,12,0.00
2013-3-13,55.5,50.5,46.0,53.0,48.5,44.0,96,93,87,30.14,30.08,14,5,16,0.01
2013-3-14,57.2,50.7,46.6,54.0,48.7,45.0,96,93,83,30.16,30.07,12,4,15,0.00
2013-3-15,75.5,56.8,48.0,62.0,49.6,47.0,97,79,43,30.08,29.95,19,5,20,0.01
2013-3-16,70.1,56.2,49.8,56.0,49.6,47.0,92,79,55,30.03,29.96,21,5,23,0.00
2013-3-17,65.7,56.3,49.5,53.0,47.0,41.0,87,72,53,30.08,29.98,20,6,23,0.00
2013-3-18,66.1,53.1,45.9,54.0,47.9,43.0,92,83,57,30.10,29.99,19,4,24,0.00
2013-3-19,59.4,54.2,48.7,54.0,49.6,46.0,91,85,71,30.14,30.06,18,4,20,0.00
2013-3-20,64.4,57.3,52.3,55.0,47.3,42.0,86,70,45,30.15,30.05,11,2,20,0.00
2013-3-21,63.2,55.0,49.6,53.0,47.8,43.0,92,77,58,30.07,29.92,21,6,25,0.00
2013-3-22,65.9,56.2,48.3,49.0,40.3,27.0,75,56,35,30.02,29.93,19,5,22,0.00
2013-3-23,73.1,59.1,49.4,46.0,30.7,18.0,72,36,20,30.07,29.98,16,4,17,0.00
2013-3-24,67.6,54.4,45.9,50.0,43.4,36.0,82,67,41,30.06,29.93,20,5,23,0.00
2013-3-25,58.4,50.5,45.9,52.0,46.8,42.0,94,87,75,30.02,29.93,13,4,14,0.00
2013-3-26,57.0,51.1,46.1,50.0,46.9,44.0,93,86,77,30.03,29.94,18,5,20,0.00
2013-3-27,53.2,48.8,46.9,50.0,46.6,45.0,94,92,88,30.03,29.97,7,2,7,0.00
2013-3-28,62.1,56.0,51.0,56.0,52.4,49.0,93,88,75,30.10,30.03,16,6,25,0.01
2013-3-29,57.1,51.6,49.0,54.0,49.9,47.0,96,94,87,30.14,30.05,9,2,13,0.00
2013-3-30,65.0,56.0,50.0,57.0,52.2,49.0,97,88,68,30.14,30.06,9,2,12,0.04
2013-3-31,61.4,56.1,51.9,57.0,53.9,50.0,96,93,82,30.13,30.08,9,3,11,0.01
2013-4-1,60.7,55.5,50.9,58.0,53.5,48.0,96,93,87,30.19,30.11,12,3,15,0.17
2013-4-2,64.8,56.2,49.1,55.0,51.0,47.0,94,83,64,30.17,30.03,19,6,22,0.00
2013-4-3,64.5,54.5,50.2,57.0,51.5,48.0,95,90,73,30.11,30.05,16,4,17,0.00
2013-4-4,63.7,56.4,50.9,58.0,53.2,50.0,96,89,73,30.15,30.07,19,5,22,0.01
2013-4-5,63.1,57.0,52.2,55.0,52.2,48.0,95,85,66,30.17,30.08,19,6,26,0.00
2013-4-6,63.2,57.2,50.8,55.0,51.1,47.0,89,80,68,30.18,30.09,23,8,27,0.00
2013-4-7,66.0,58.2,51.9,54.0,50.5,48.0,90,76,64,30.13,29.92,23,8,26,0.00
2013-4-8,61.3,54.3,49.3,50.0,44.5,40.0,92,70,51,29.94,29.83,24,10,32,0.02
2013-4-9,69.9,56.4,49.1,49.0,44.4,34.0,84,66,33,30.06,29.93,19,7,23,0.00
2013-4-10,74.9,58.6,50.3,51.0,43.3,35.0,91,60,23,30.16,30.01,18,6,25,0.00
2013-4-11,65.0,53.5,48.1,52.0,48.1,45.0,95,83,59,30.05,29.83,22,5,26,0.00
2013-4-12,66.7,52.7,46.6,54.0,47.4,44.0,93,83,58,29.91,29.81,12,3,17,0.01
2013-4-13,57.4,51.4,47.1,51.0,47.6,44.0,93,87,76,29.95,29.85,15,4,21,0.00
2013-4-14,59.7,51.8,45.5,50.0,46.3,42.0,93,82,67,29.92,29.81,21,6,24,0.00
2013-4-15,57.3,51.2,46.0,50.0,43.9,38.0,91,77,58,29.98,29.89,23,9,30,0.00
2013-4-16,52.4,45.7,40.9,42.0,37.0,32.0,77,72,57,30.06,29.98,15,4,18,0.00
2013-4-17,65.5,58.4,49.8,49.0,40.0,33.0,79,52,31,30.21,30.11,23,8,24,0.00
2013-4-18,69.3,58.3,49.9,49.0,37.1,27.0,76,47,25,30.24,30.17,20,5,21,0.00
2013-4-19,75.2,57.7,47.4,53.0,45.5,38.0,84,67,27,30.22,30.02,21,5,23,0.00
2013-4-20,77.6,60.0,48.5,55.0,47.8,44.0,89,67,37,30.08,29.92,21,4,23,0.00
2013-4-21,67.1,55.1,48.2,54.0,49.6,45.0,90,82,59,30.02,29.93,13,3,16,0.00
2013-4-22,59.3,53.5,50.9,54.0,50.4,48.0,94,89,81,30.02,29.92,11,4,12,0.00
2013-4-23,61.3,54.8,50.8,55.0,51.4,49.0,95,89,76,29.99,29.91,13,4,16,0.00
2013-4-24,56.1,54.2,51.7,54.0,51.4,50.0,94,90,85,29.99,29.90,7,1,8,0.01
2013-4-25,62.6,57.4,52.2,54.0,50.7,45.0,86,79,70,30.13,29.99,18,5,20,0.00
2013-4-26,62.9,54.9,48.7,54.0,49.4,45.0,91,82,70,30.22,30.12,23,6,23,0.00
2013-4-27,63.3,53.7,47.7,55.0,49.6,45.0,93,86,70,30.20,30.06,14,4,16,0.00
2013-4-28,59.8,53.4,49.3,53.0,50.0,48.0,95,88,77,30.08,29.90,15,4,18,0.00
2013-4-29,55.9,52.7,49.9,53.0,50.6,48.0,95,93,90,29.93,29.81,8,2,10,0.00
2013-4-30,51.9,51.3,50.7,51.0,50.1,49.0,96,95,94,29.84,29.83,8,2,11,0.01